Tracking 30994 objects as of 8-Jul-2025
HD Live streaming from Space Station
objects crossing your sky now

CZ-8A R/B

Track CZ-8A R/B now!
10-day predictions


NORAD ID: 62980
Int'l Code: 2025-030K
Perigee: 704.8 km
Apogee: 874.6 km
Inclination: 50.0 °
Period: 100.5 minutes
Semi major axis: 7160 km
RCS: Unknown
Launch date: February 11, 2025
Source: People's Republic of China (PRC)
Launch site: Wenchang Satellite Launch Center (WSC)

Note: This is a ROCKET BODY
Your satellite tracking list
Your tracking list is empty




NASA's NSSDC Master Catalog

Two Line Element Set (TLE):
1 62980U 25030K   25188.84511863 -.00000010  00000-0  52976-4 0  9990
2 62980  50.0074 328.0322 0118592 240.5236 118.3808 14.32755829 20996
Source of the keplerian elements: AFSPC